This is the latest recevied weather packets stored in our database for station/object K5SVV. If no packets are shown the sender has not sent any weather packets the latest 10 day(s).
| Time | Temp. | Humidity | Pressure | Rain* | Wind** | Luminosity | Snow |
|---|---|---|---|---|---|---|---|
| 1777652113 | 13.33° C | 90% | 1016 hPa | 0 mm | - | 277 W/m² | - |
| 1777651810 | 12.78° C | 90% | 1016.1 hPa | 0 mm | - | 231 W/m² | - |
| 1777651507 | 12.78° C | 91% | 1016 hPa | 0 mm | - | 220 W/m² | - |
| 1777651204 | 12.78° C | 92% | 1015.9 hPa | 0 mm | - | 127 W/m² | - |
| 1777650900 | 12.78° C | 93% | 1016.2 hPa | 0 mm | - | 67 W/m² | - |
| 1777650597 | 12.78° C | 94% | 1016.2 hPa | 0 mm | - | 83 W/m² | - |
| 1777650295 | 12.78° C | 95% | 1015.6 hPa | 0 mm | - | 142 W/m² | - |
| 1777649991 | 12.78° C | 95% | 1015.5 hPa | 0 mm | - | 132 W/m² | - |
| 1777649690 | 12.78° C | 95% | 1015.5 hPa | 0 mm | - | 138 W/m² | - |
| 1777649384 | 12.78° C | 96% | 1015.5 hPa | 0 mm | - | 134 W/m² | - |
| 1777649082 | 12.78° C | 96% | 1015.8 hPa | 0 mm | - | 78 W/m² | - |
| 1777648779 | 12.78° C | 96% | 1016 hPa | 0 mm | - | 63 W/m² | - |
| 1777648477 | 12.78° C | 96% | 1015.7 hPa | 0 mm | - | 60 W/m² | - |
| 1777648173 | 12.78° C | 96% | 1016 hPa | 0 mm | - | 48 W/m² | - |
| 1777647868 | 12.78° C | 96% | 1015.8 hPa | 0 mm | - | 48 W/m² | - |
| 1777647565 | 12.78° C | 96% | 1015.7 hPa | 0 mm | - | 46 W/m² | - |
| 1777647261 | 12.78° C | 96% | 1015.5 hPa | 1.27 mm | - | 51 W/m² | - |
| 1777646960 | 12.78° C | 96% | 1015.4 hPa | 1.27 mm | - | 51 W/m² | - |
| 1777646655 | 12.78° C | 96% | 1015.5 hPa | 0 mm | - | 54 W/m² | - |
| 1777646351 | 12.78° C | 96% | 1015.7 hPa | 0 mm | - | 51 W/m² | - |
| 1777646047 | 12.78° C | 96% | 1015.7 hPa | 1.78 mm | - | 44 W/m² | - |
| 1777645744 | 12.78° C | 96% | 1015.7 hPa | 1.78 mm | - | 42 W/m² | - |
| 1777645441 | 12.78° C | 96% | 1016.2 hPa | 0 mm | - | 38 W/m² | - |
| 1777645137 | 12.78° C | 96% | 1015.9 hPa | 1.27 mm | - | 34 W/m² | - |
| 1777644833 | 12.78° C | 96% | 1016.2 hPa | 1.27 mm | - | 33 W/m² | - |
* Rain latest hour (hover to see other rain measurements)
** Current wind speed in m/s (hover to see current wind gust speed)